Weather History for Delaware, OH

Change the Weather History Date:

Tuesday, December 3, 2013

  Actual Average Record
Temperature  
Mean Temperature 41 °F -  
Max Temperature 50 °F 43 °F 69 °F (1982)
Min Temperature 32 °F 26 °F -3 °F (1976)
Degree Days  
Heating Degree Days 24    
Moisture  
Dew Point 37 °F    
Average Humidity 88    
Maximum Humidity 100    
Minimum Humidity 71    
Precipitation  
Precipitation 0.01 in - - ()
Sea Level Pressure  
Sea Level Pressure 29.85 in    
Wind  
Wind Speed 4 mph (SE)    
Max Wind Speed 9 mph    
Max Gust Speed -    
Visibility 5 miles    
Events Rain    
Averages and records for this station are not official NWS values.
T = Trace of Precipitation, MM = Missing Value Source: NWS Daily Summary

Daily Weather History Graph

Daily Weather History Graph

Search for Another Location

Airport:

Trip Planner

Search our weather history database for the weather conditions in past years. The results will help you decide how hot, cold, wet, or windy it might be!

Date:

Astronomy

Dec. 03, 2013 Rise Set
Actual Time 7:38 AM EST 5:06 PM EST
Civil Twilight 7:07 AM EST 5:36 PM EST
Nautical Twilight 6:33 AM EST 6:10 PM EST
Astronomical Twilight 6:01 AM EST 6:43 PM EST
Moon 8:06 AM EST (12/3) 6:09 PM EST (12/3)
Length of Visible Light 10h 28m
Length of Day
9h 28m
New Moon, 1% of the Moon is Illuminated
Dec 3
New Moon
Dec 9
First Quarter
Dec 17
Full
Dec 25
Last Quarter
Jan 1
New

Hourly Weather History & Observations

Time (EST) Temp. Windchill Dew Point Humidity Pressure Visibility Wind Dir Wind Speed Gust Speed Precip Events Conditions
12:17 AM 33.8 °F - 33.8 °F 100% 29.85 in 2.5 mi Calm Calm - N/A   Drizzle
12:37 AM 33.8 °F 29.6 °F 33.8 °F 100% 29.85 in 2.0 mi East 4.6 mph - 0.01 in   Drizzle
12:57 AM 33.8 °F 27.0 °F 33.8 °F 100% 29.84 in 2.5 mi East 8.1 mph - 0.01 in   Drizzle
1:17 AM 33.8 °F - 33.8 °F 100% 29.84 in 2.5 mi Calm Calm - N/A Rain Light Rain
1:37 AM 33.8 °F 28.6 °F 33.8 °F 100% 29.84 in 3.0 mi East 5.8 mph - N/A   Overcast
1:57 AM 35.6 °F 31.7 °F 33.8 °F 93% 29.84 in 3.0 mi East 4.6 mph - N/A   Overcast
2:17 AM 35.6 °F 31.7 °F 33.8 °F 93% 29.84 in 3.0 mi East 4.6 mph - N/A   Overcast
2:37 AM 33.8 °F 29.6 °F 33.8 °F 100% 29.84 in 2.5 mi East 4.6 mph - N/A   Overcast
2:57 AM 35.6 °F 32.8 °F 33.8 °F 93% 29.85 in 2.5 mi East 3.5 mph - N/A   Overcast
3:17 AM 35.6 °F 30.7 °F 33.8 °F 93% 29.84 in 3.0 mi ENE 5.8 mph - N/A   Light Drizzle
3:37 AM 35.6 °F 31.7 °F 33.8 °F 93% 29.84 in 3.0 mi ENE 4.6 mph - N/A   Overcast
3:57 AM 35.6 °F 29.2 °F 33.8 °F 93% 29.83 in 3.0 mi East 8.1 mph - N/A   Overcast
4:17 AM 33.8 °F 28.6 °F 33.8 °F 100% 29.83 in 2.5 mi East 5.8 mph - N/A   Overcast
4:37 AM 33.8 °F 28.6 °F 33.8 °F 100% 29.84 in 2.5 mi East 5.8 mph - N/A   Overcast
4:57 AM 35.6 °F 31.7 °F 33.8 °F 93% 29.84 in 3.0 mi East 4.6 mph - N/A   Overcast
5:17 AM 35.6 °F 30.7 °F 33.8 °F 93% 29.84 in 3.0 mi East 5.8 mph - N/A   Overcast
5:37 AM 35.6 °F 31.7 °F 33.8 °F 93% 29.84 in 3.0 mi East 4.6 mph - N/A   Overcast
5:57 AM 35.6 °F 31.7 °F 33.8 °F 93% 29.84 in 3.0 mi East 4.6 mph - N/A   Overcast
6:17 AM 35.6 °F 30.7 °F 33.8 °F 93% 29.84 in 3.0 mi ESE 5.8 mph - N/A   Overcast
6:37 AM 33.8 °F 28.6 °F 32.0 °F 93% 29.83 in 2.5 mi ESE 5.8 mph - N/A   Scattered Clouds
6:57 AM 33.8 °F 29.6 °F 32.0 °F 93% 29.83 in 2.5 mi ESE 4.6 mph - N/A   Clear
7:17 AM 33.8 °F 28.6 °F 32.0 °F 93% 29.83 in 2.5 mi SE 5.8 mph - N/A   Clear
7:37 AM 33.8 °F 29.6 °F 32.0 °F 93% 29.83 in 2.5 mi ESE 4.6 mph - N/A   Clear
7:57 AM 32.0 °F - 32.0 °F 100% 29.84 in 1.2 mi Calm Calm - N/A   Mist
8:17 AM 32.0 °F - 32.0 °F 100% 29.85 in 1.0 mi Calm Calm - N/A   Mist
8:37 AM 32.0 °F - 32.0 °F 100% 29.87 in 0.8 mi Calm Calm - N/A   Mist
8:57 AM 33.8 °F - 32.0 °F 93% 29.87 in 0.8 mi Calm Calm - N/A   Mist
9:17 AM 35.6 °F - 33.8 °F 93% 29.88 in 1.2 mi Calm Calm - N/A   Mist
9:37 AM 35.6 °F 31.7 °F 35.6 °F 100% 29.88 in 2.0 mi SE 4.6 mph - N/A   Clear
9:57 AM 37.4 °F 33.8 °F 35.6 °F 93% 29.88 in 2.5 mi SE 4.6 mph - N/A   Clear
10:17 AM 39.2 °F 33.6 °F 37.4 °F 93% 29.87 in 4.0 mi SE 8.1 mph - N/A   Clear
10:37 AM 41.0 °F 35.2 °F 37.4 °F 87% 29.87 in 4.0 mi SSE 9.2 mph - N/A   Clear
10:57 AM 42.8 °F 38.0 °F 37.4 °F 81% 29.87 in 5.0 mi SSE 8.1 mph - N/A   Haze
11:17 AM 44.6 °F 40.7 °F 37.4 °F 76% 29.88 in 5.0 mi SSW 6.9 mph - N/A   Haze
11:37 AM 44.6 °F 40.7 °F 39.2 °F 81% 29.87 in 5.0 mi South 6.9 mph - N/A   Haze
11:57 AM 46.4 °F 42.9 °F 37.4 °F 71% 29.88 in 7.0 mi South 6.9 mph - N/A   Clear
12:17 PM 44.6 °F 40.7 °F 37.4 °F 76% 29.88 in 7.0 mi SSW 6.9 mph - N/A   Scattered Clouds
12:37 PM 46.4 °F 42.9 °F 39.2 °F 76% 29.87 in 5.0 mi SSW 6.9 mph - N/A   Haze
12:57 PM 46.4 °F 44.3 °F 39.2 °F 76% 29.86 in 7.0 mi SW 4.6 mph - N/A   Scattered Clouds
1:17 PM 46.4 °F - 39.2 °F 76% 29.85 in 7.0 mi Calm Calm - N/A   Clear
1:37 PM 48.2 °F - 39.2 °F 71% 29.85 in 7.0 mi SW 4.6 mph - N/A   Clear
1:57 PM 48.2 °F - 41.0 °F 76% 29.85 in 7.0 mi South 3.5 mph - N/A   Mostly Cloudy
2:17 PM 48.2 °F - 41.0 °F 76% 29.84 in 10.0 mi SSE 3.5 mph - N/A   Scattered Clouds
2:37 PM 50.0 °F - 41.0 °F 71% 29.83 in 7.0 mi SSE 3.5 mph - N/A   Clear
2:57 PM 50.0 °F - 41.0 °F 71% 29.83 in 10.0 mi South 3.5 mph - N/A   Clear
3:17 PM 48.2 °F - 41.0 °F 76% 29.82 in 7.0 mi SSE 4.6 mph - N/A   Clear
3:37 PM 48.2 °F - 41.0 °F 76% 29.82 in 7.0 mi Calm Calm - N/A   Clear
3:57 PM 48.2 °F - 41.0 °F 76% 29.82 in 7.0 mi SE 4.6 mph - N/A   Scattered Clouds
4:17 PM 48.2 °F - 41.0 °F 76% 29.83 in 7.0 mi ESE 3.5 mph - N/A   Scattered Clouds
4:37 PM 46.4 °F - 41.0 °F 81% 29.84 in 7.0 mi Calm Calm - N/A   Scattered Clouds
4:58 PM 46.4 °F - 41.0 °F 81% 29.85 in 7.0 mi Calm Calm - N/A   Scattered Clouds
5:17 PM 44.6 °F - 39.2 °F 81% 29.85 in 10.0 mi Calm Calm - N/A   Clear
5:37 PM 44.6 °F 43.1 °F 41.0 °F 87% 29.85 in 10.0 mi SSE 3.5 mph - N/A   Clear
5:57 PM 42.8 °F 40.1 °F 39.2 °F 87% 29.85 in 10.0 mi SSE 4.6 mph - N/A   Clear
6:17 PM 42.8 °F - 39.2 °F 87% 29.85 in 7.0 mi Calm Calm - N/A   Clear
6:37 PM 42.8 °F 41.1 °F 39.2 °F 87% 29.85 in 7.0 mi SE 3.5 mph - N/A   Clear
6:57 PM 42.8 °F 39.3 °F 39.2 °F 87% 29.84 in 7.0 mi ESE 5.8 mph - N/A   Clear
7:17 PM 42.8 °F 39.3 °F 39.2 °F 87% 29.84 in 7.0 mi SE 5.8 mph - N/A   Clear
7:37 PM 42.8 °F 41.1 °F 41.0 °F 93% 29.84 in 7.0 mi SE 3.5 mph - N/A   Clear
7:57 PM 42.8 °F 39.3 °F 41.0 °F 93% 29.83 in 7.0 mi SE 5.8 mph - N/A   Clear
8:17 PM 44.6 °F 41.4 °F 41.0 °F 87% 29.83 in 7.0 mi SE 5.8 mph - N/A   Clear
8:37 PM 44.6 °F 41.4 °F 41.0 °F 87% 29.82 in 7.0 mi ESE 5.8 mph - N/A   Clear
8:57 PM 44.6 °F 43.1 °F 41.0 °F 87% 29.83 in 7.0 mi SE 3.5 mph - N/A   Clear
9:17 PM 42.8 °F - 41.0 °F 93% 29.84 in 7.0 mi Calm Calm - N/A   Clear
9:37 PM 41.0 °F - 39.2 °F 93% 29.85 in 7.0 mi Calm Calm - N/A   Clear
9:58 PM 41.0 °F 39.0 °F 37.4 °F 87% 29.85 in 7.0 mi SE 3.5 mph - N/A   Clear
10:17 PM 42.8 °F 39.3 °F 41.0 °F 93% 29.84 in 7.0 mi SE 5.8 mph - N/A   Clear
10:37 PM 44.6 °F 40.7 °F 41.0 °F 87% 29.83 in 10.0 mi SE 6.9 mph - N/A   Clear
10:57 PM 44.6 °F 41.4 °F 41.0 °F 87% 29.83 in 10.0 mi SE 5.8 mph - N/A   Clear
11:17 PM 44.6 °F - 41.0 °F 87% 29.85 in 10.0 mi Calm Calm - N/A   Scattered Clouds
11:37 PM 42.8 °F - 41.0 °F 93% 29.86 in 7.0 mi Calm Calm - N/A   Overcast
11:57 PM 44.6 °F - 41.0 °F 87% 29.87 in 7.0 mi Calm Calm - N/A   Overcast